Theta_e
328 328 324 320 319 318 320 321 322 322 321 320 320 318 315 317 320 320 320 320 318 318 314 308 308 311 312 314 318 320 322 323 321 319 319 319 319 320 320 320 321 322
328 327 323 321 321 321 322 321 321 321 319 317 316 315 315 318 320 319 320 318 318 317 311 306 306 307 307 310 313 317 320 322 320 317 316 318 319 319 318 319 321 321
327 324 322 323 323 324 324 321 319 320 319 316 316 316 315 317 319 319 319 318 317 313 308 305 305 305 305 306 308 311 315 318 317 316 315 316 318 317 317 319 320 318
325 324 324 325 325 325 322 318 318 321 320 316 315 316 314 314 317 318 318 317 313 309 305 304 304 304 304 304 305 306 308 310 311 313 314 315 316 317 317 320 320 318
325 326 326 326 325 323 319 316 318 320 318 313 313 313 311 310 313 315 315 313 309 306 304 303 304 303 304 304 304 305 305 305 306 309 312 313 315 317 317 318 319 319
327 327 326 325 322 319 316 316 318 319 314 309 309 309 309 308 309 310 310 309 307 305 304 304 304 304 304 305 305 305 305 305 304 306 309 311 314 316 316 316 317 317
327 327 325 323 321 318 317 318 319 317 311 308 308 307 307 306 305 306 306 307 306 305 305 305 305 306 306 306 307 307 307 306 305 305 306 308 312 315 316 315 315 315
326 325 323 322 320 317 318 320 320 317 313 311 308 306 305 304 304 305 306 307 306 306 306 307 307 307 307 307 308 308 308 308 307 306 306 306 309 313 315 315 315 314
325 324 323 321 318 317 320 322 320 317 316 314 309 305 305 304 304 305 306 306 307 307 308 308 308 308 308 310 311 311 311 310 310 309 308 307 307 309 311 313 314 315
324 324 323 321 319 320 322 322 319 317 318 317 311 305 304 304 305 305 306 307 307 308 308 310 312 311 311 314 315 315 315 314 314 313 312 311 310 310 309 310 312 313
323 323 323 320 320 322 322 321 319 318 319 318 313 306 303 305 306 307 308 308 308 309 310 313 315 315 315 316 317 316 316 316 316 316 315 314 314 314 313 312 311 311
322 323 323 321 320 322 321 320 320 319 318 320 316 308 304 306 307 308 309 309 309 310 311 312 314 315 316 317 317 317 317 316 316 316 316 316 316 316 317 316 314 311
322 323 323 322 322 321 319 319 320 320 319 320 318 311 306 307 309 309 309 309 308 309 310 310 310 311 314 316 317 317 317 316 317 317 317 317 317 317 317 317 317 315
321 322 322 322 321 319 317 316 317 320 320 320 319 314 309 309 309 308 309 309 309 310 311 311 310 311 314 316 317 317 317 317 317 318 318 318 318 318 318 318 318 318
322 322 322 321 320 319 318 315 315 319 321 320 318 314 311 311 310 308 308 309 310 312 312 312 312 314 315 316 316 316 317 317 318 319 319 318 318 318 318 318 318 319
322 322 321 320 319 320 321 318 318 320 322 320 316 313 313 314 311 308 308 310 311 312 311 311 314 317 318 317 317 317 317 318 318 319 319 318 318 317 317 317 317 318
322 322 321 320 319 320 321 320 320 321 322 319 315 313 315 315 310 309 310 310 310 311 310 309 312 318 319 319 319 319 319 319 319 319 319 318 316 316 315 315 315 316
322 322 322 321 320 319 319 320 320 320 321 319 313 312 313 312 310 311 312 311 310 310 309 309 312 317 319 319 320 321 320 320 320 319 319 318 316 315 315 315 315 315
321 321 321 321 321 320 320 320 319 319 319 317 314 312 311 310 311 314 313 310 310 309 310 312 314 317 319 319 319 321 321 320 319 319 319 318 317 316 315 315 315 316
322 322 322 322 322 322 321 321 320 319 318 317 317 316 314 313 315 315 312 310 309 310 313 315 316 317 319 319 319 320 319 319 319 319 319 318 318 317 315 314 315 316
323 322 322 322 323 322 321 321 320 319 318 318 318 317 315 315 315 313 311 311 312 315 317 317 317 317 318 319 319 319 319 319 319 319 319 318 317 316 315 315 315 316
322 322 322 322 322 322 321 321 321 320 320 319 319 318 317 317 317 316 315 316 317 318 318 317 317 318 318 319 319 319 319 319 319 319 318 317 317 316 315 315 315 315
320 320 320 320 321 321 321 321 321 321 320 319 319 320 319 318 319 318 317 318 319 318 318 318 318 318 319 319 319 319 319 319 319 318 317 316 316 315 315 315 316 315
318 318 319 319 319 320 320 320 320 320 320 319 319 319 319 319 319 318 317 317 318 318 318 318 318 317 318 319 319 319 319 318 318 317 316 316 316 316 316 316 316 316
317 317 317 318 318 318 318 318 319 319 319 319 319 319 320 319 319 318 317 317 317 317 316 316 317 317 317 317 318 318 318 318 317 316 316 315 316 316 316 315 316 316
314 314 315 316 317 317 317 317 318 318 319 319 319 319 319 319 319 318 317 317 317 316 315 316 317 317 317 317 317 317 318 317 316 316 315 315 316 316 315 314 315 315
Wind_Speed
18 17 15 13 13 13 13 13 12 11 10 9 9 8 8 11 11 10 9 7 5 3 1 4 8 9 10 11 10 10 10 9 8 7 6 7 6 5 5 5 7 10
19 17 15 13 13 13 12 11 11 10 9 8 8 8 9 12 12 10 9 7 5 3 2 6 9 9 10 10 11 11 11 10 10 8 7 7 6 6 5 7 9 11
19 17 14 12 12 12 12 11 11 10 8 8 8 8 9 12 13 11 9 7 5 3 4 7 9 9 9 9 9 10 10 11 11 10 8 7 6 6 6 8 11 13
20 17 14 12 12 12 12 11 11 10 8 8 9 8 8 11 13 12 10 7 5 4 6 8 9 9 9 8 9 9 9 9 11 11 11 9 8 6 6 9 12 13
19 17 15 14 13 13 13 13 11 10 9 10 11 10 10 11 12 12 10 8 6 7 8 9 10 10 9 9 9 9 9 9 10 11 13 12 11 10 8 8 10 11
18 18 17 15 14 14 14 13 12 10 10 12 13 12 12 12 12 11 10 9 9 10 10 10 11 11 11 11 11 11 11 11 10 10 12 13 13 12 11 9 9 10
19 18 16 14 13 14 14 13 11 10 10 13 14 13 14 14 13 12 12 12 12 11 11 12 12 12 12 11 11 11 11 12 11 10 11 12 14 14 12 11 10 11
19 17 15 14 14 14 15 13 11 10 10 12 13 13 15 15 15 15 15 15 14 14 13 13 12 12 11 11 10 9 9 10 9 9 10 10 12 14 13 12 11 11
19 17 16 15 14 15 15 13 11 11 10 9 11 14 15 16 17 17 18 17 16 15 14 13 12 11 11 11 10 9 8 8 7 7 8 8 9 11 12 13 12 12
21 19 18 16 15 16 15 14 12 11 9 8 10 14 16 17 18 19 19 19 18 16 14 12 12 12 12 12 11 10 9 8 8 7 7 8 8 8 9 11 12 13
22 19 18 17 16 16 15 13 12 11 9 8 10 15 18 19 20 20 20 19 17 15 13 12 12 12 12 12 12 11 10 8 8 7 7 8 8 8 8 8 10 12
21 20 20 18 17 16 14 13 13 11 10 8 10 14 19 21 21 20 18 17 15 13 12 11 11 11 12 12 12 11 9 8 7 6 6 7 7 7 7 6 7 9
21 22 21 20 19 17 15 14 14 12 11 10 11 15 20 21 21 20 17 15 13 12 12 11 11 12 12 12 12 12 10 8 7 6 7 7 8 8 7 7 7 7
22 23 23 22 20 17 15 16 16 15 13 12 12 16 20 21 21 20 17 15 14 13 12 12 12 14 14 13 13 13 12 10 9 8 8 9 9 9 9 9 9 8
24 24 24 23 21 18 18 18 19 18 16 14 14 17 20 20 20 19 17 16 15 14 13 13 14 15 15 14 14 14 13 12 11 11 11 11 11 11 11 11 12 12
22 21 22 23 22 20 21 21 20 19 18 16 17 19 21 20 20 21 20 18 17 16 15 16 17 17 16 15 15 14 13 12 12 12 12 13 13 13 14 14 15 17
20 20 21 23 22 20 20 21 20 20 19 19 19 21 21 22 24 25 23 21 20 19 19 20 21 19 18 17 17 16 15 14 13 14 15 15 16 16 15 16 17 20
19 19 19 20 21 21 21 21 21 21 21 20 21 22 22 25 27 25 23 24 24 22 23 24 24 21 20 20 20 19 18 17 16 17 17 18 18 18 18 18 18 20
15 16 15 16 19 21 22 22 23 24 24 22 21 22 24 27 27 24 24 26 26 25 26 26 24 23 22 22 22 22 21 20 19 18 18 19 20 20 20 20 18 17
12 13 13 15 17 20 21 21 22 24 26 24 23 23 27 29 28 26 26 27 27 27 27 26 25 24 23 22 22 22 22 21 20 19 19 20 21 22 20 19 17 15
9 11 12 14 16 17 19 20 21 23 25 25 23 23 26 29 28 28 28 27 27 28 28 27 27 26 24 23 22 21 21 20 20 20 20 20 21 22 20 17 16 14
5 7 9 11 13 14 15 17 20 22 23 23 22 22 24 26 27 27 27 26 27 28 28 29 29 28 26 24 22 21 21 21 21 21 21 21 21 21 20 17 15 13
6 5 5 6 7 9 11 13 16 18 20 21 22 22 24 25 26 26 25 25 27 28 28 30 31 29 26 24 23 22 22 22 22 21 22 22 22 21 19 16 14 14
6 5 5 5 5 5 6 7 10 13 16 18 18 20 21 22 24 26 26 26 27 27 28 30 29 26 23 23 23 23 23 23 23 23 23 23 23 21 19 17 15 14
6 5 4 4 5 5 5 5 5 7 10 12 13 15 17 18 19 21 23 24 26 27 28 27 23 21 22 23 23 23 24 24 24 24 24 24 24 22 20 18 17 16
8 6 5 4 4 3 3 4 5 5 6 7 9 12 14 15 17 18 19 20 21 23 24 24 21 20 21 22 23 24 25 25 25 26 25 25 25 23 21 20 19 18
Wind_Direction
209 208 212 208 196 195 197 200 204 207 214 221 223 219 195 181 178 181 190 199 208 227 221 174 170 174 180 181 184 185 181 179 174 171 175 174 171 166 160 166 165 159
210 212 213 207 197 197 204 209 212 211 213 213 205 191 181 176 176 184 197 205 220 242 199 168 161 162 169 176 184 188 186 181 171 166 176 180 174 172 174 173 167 161
211 212 209 205 203 204 210 214 211 210 212 207 196 189 187 185 182 187 199 212 226 226 174 159 157 157 161 165 171 177 182 181 176 173 175 169 166 173 171 166 161 151
206 208 206 206 209 210 212 209 202 204 214 211 203 202 198 192 191 194 201 209 211 181 152 143 143 147 153 158 158 158 163 168 171 176 178 167 153 154 156 157 156 148
202 204 204 206 210 212 212 204 196 199 207 203 198 198 197 193 194 196 197 193 179 161 147 140 137 136 140 144 142 138 138 143 154 171 182 176 157 145 142 150 157 155
201 201 203 207 210 211 207 199 195 198 197 189 184 184 188 190 191 188 183 174 167 160 151 146 141 136 134 133 131 129 127 128 136 157 177 177 165 153 145 148 157 157
199 198 201 207 210 209 203 194 194 195 186 180 179 180 182 184 183 176 170 167 166 162 157 152 146 140 137 135 134 133 129 128 130 141 159 168 169 166 158 154 157 158
196 197 202 207 208 202 195 191 192 188 179 176 178 179 179 179 176 170 167 168 166 163 160 156 152 150 147 146 146 145 141 138 137 140 145 151 162 171 173 171 167 165
195 200 206 208 203 194 189 190 192 186 178 177 180 180 177 176 175 171 169 169 167 166 166 163 164 165 164 161 161 161 159 157 158 160 157 151 152 163 175 183 184 181
198 202 206 207 200 194 194 193 193 191 184 182 186 183 178 176 176 174 172 171 171 173 174 172 173 176 177 176 174 173 172 169 170 176 182 177 167 165 172 183 191 195
201 200 203 206 200 198 201 197 194 196 193 193 197 189 181 180 180 178 177 177 177 179 182 182 182 184 186 187 185 184 182 178 176 179 186 188 185 180 181 188 197 202
201 199 200 204 202 199 200 196 195 199 200 203 207 197 188 185 184 182 181 182 182 184 190 194 196 199 200 199 198 198 197 192 191 194 196 198 201 197 191 194 203 208
203 201 200 201 199 197 196 193 193 200 205 209 212 204 194 189 188 186 184 187 190 192 199 208 213 214 214 213 211 212 213 211 213 219 216 214 219 219 210 206 211 217
207 206 204 198 193 197 201 198 198 202 204 207 210 206 198 192 190 190 190 194 197 199 206 215 222 223 219 219 219 219 221 226 228 230 232 231 233 233 229 225 226 229
207 209 207 199 195 202 207 204 202 201 198 200 204 204 200 194 191 194 199 201 201 202 210 222 227 227 223 222 220 219 223 232 237 238 241 245 246 246 245 243 241 240
207 208 202 197 199 205 206 204 202 197 196 199 200 197 198 196 194 198 203 208 210 210 218 230 232 228 228 229 225 224 231 241 246 245 246 251 255 254 254 254 252 249
204 206 199 198 206 209 204 203 203 198 200 207 202 195 198 202 201 201 204 211 218 221 226 235 238 233 233 237 236 236 242 248 251 253 256 259 261 260 262 265 260 252
202 207 204 203 209 211 207 208 211 207 206 210 206 200 204 209 209 211 216 217 219 224 229 236 240 238 238 241 241 240 243 249 255 261 265 267 265 267 274 278 269 251
200 207 208 208 210 212 213 216 219 213 208 211 215 214 215 217 221 230 230 222 221 226 231 237 240 238 240 243 243 241 245 251 257 262 266 268 269 272 278 281 271 250
198 205 209 212 214 216 217 219 219 215 215 223 232 230 225 226 235 238 230 222 224 230 233 237 239 240 242 242 242 243 246 251 256 261 264 267 270 274 278 277 268 250
203 209 213 218 222 223 222 221 222 223 226 233 239 236 230 231 235 233 227 226 231 234 237 239 241 243 243 240 240 242 244 249 255 260 264 265 267 271 273 268 260 246
183 204 214 222 229 232 232 229 229 230 234 237 239 236 232 231 231 230 230 234 238 238 240 242 242 242 240 239 240 241 242 248 255 259 262 263 265 267 264 256 248 236
138 162 184 200 218 231 237 236 234 232 233 235 238 237 237 238 239 239 236 235 236 238 241 244 242 239 238 240 241 242 245 248 252 256 258 260 261 259 253 244 235 224
120 129 142 153 168 190 210 225 232 233 234 235 238 240 243 245 248 248 245 240 240 243 246 248 244 236 235 239 240 243 247 249 251 254 255 256 254 246 237 232 224 215
105 105 116 130 141 150 165 181 197 212 222 229 234 238 243 246 247 249 248 247 249 251 249 248 244 235 235 239 241 243 247 249 251 252 250 248 243 232 227 227 222 216
109 109 111 117 127 141 161 170 170 177 195 213 227 235 241 244 243 244 247 249 253 253 246 242 243 243 242 244 244 244 247 249 250 248 245 240 232 226 225 227 225 221